Lubbock, TX

12:08 AM CDT on April 25, 2018 (GMT -0500)
Lubbock International

Weather History for KLBB - November, 2012

Change the Weather History Date:

Saturday, November 10, 2012

  Actual Average Record
Temperature  
Mean Temperature 70 °F 52 °F  
Max Temperature 83 °F 66 °F 85 °F (1927)
Min Temperature 57 °F 38 °F 19 °F (1950)
Degree Days  
Heating Degree Days 0 13  
Month to date heating degree days 34 112  
Since 1 July heating degree days 247 294  
Cooling Degree Days 5 0  
Month to date cooling degree days 17 0  
Year to date cooling degree days 2321 1801  
Growing Degree Days 20 (Base 50)    
Moisture  
Dew Point 47 °F    
Average Humidity 49    
Maximum Humidity 80    
Minimum Humidity 18    
Precipitation  
Precipitation T in 0.03 in 0.42 in (1982)
Month to date precipitation 0.01 0.33  
Year to date precipitation 10.75 17.84  
Snow  
Snow 0.00 in 0.00 in 0.10 in (1979)
Month to date snowfall 0.0 0.2  
Since 1 July snowfall 0.0 0.2  
Since 1 September snowfall 0.0 0.2  
Snow Depth 0.00 in    
Sea Level Pressure  
Sea Level Pressure 29.67 in    
Wind  
Wind Speed 18 mph (SSW)    
Max Wind Speed 37 mph    
Max Gust Speed 46 mph    
Visibility 9 miles    
Events Rain    
T = Trace of Precipitation, MM = Missing Value Source: NWS Daily Summary

Daily Weather History Graph

Daily Weather History Graph

Search for Another Location

Airport or City:

Astronomy

Nov. 10, 2012 Rise Set
Actual Time 7:14 AM CST 5:47 PM CST
Civil Twilight 6:48 AM CST 6:13 PM CST
Nautical Twilight 6:18 AM CST 6:43 PM CST
Astronomical Twilight 5:49 AM CST 7:12 PM CST
Moon 3:31 AM CST (11/10) 3:27 PM CST (11/10)
Length of Visible Light 11h 24m
Length of Day
10h 32m
Waning Crescent, 14% of the Moon is Illuminated
Nov 10
Waning Crescent
Nov 13
New
Nov 20
First Quarter
Nov 28
Full
Dec 6
Last Quarter

Hourly Weather History & Observations

Time (CST) Temp. Dew Point Humidity Pressure Visibility Wind Dir Wind Speed Gust Speed Precip Events Conditions
12:53 AM 62.1 °F 55.0 °F 78% 29.75 in 10.0 mi South 9.2 mph - N/A   Scattered Clouds
1:53 AM 62.1 °F 55.0 °F 78% 29.74 in 10.0 mi South 13.8 mph - N/A   Scattered Clouds
2:53 AM 62.1 °F 54.0 °F 75% 29.72 in 10.0 mi South 13.8 mph - N/A   Mostly Cloudy
3:53 AM 60.1 °F 53.1 °F 78% 29.71 in 10.0 mi South 15.0 mph - N/A   Scattered Clouds
4:53 AM 59.0 °F 52.0 °F 78% 29.72 in 10.0 mi SSW 8.1 mph - N/A   Partly Cloudy
5:53 AM 57.0 °F 51.1 °F 81% 29.73 in 10.0 mi South 6.9 mph - N/A   Partly Cloudy
6:53 AM 57.0 °F 51.1 °F 81% 29.72 in 10.0 mi South 10.4 mph - N/A   Scattered Clouds
7:53 AM 57.9 °F 51.1 °F 78% 29.74 in 10.0 mi South 12.7 mph - N/A   Mostly Cloudy
8:53 AM 61.0 °F 52.0 °F 72% 29.73 in 10.0 mi South 19.6 mph - N/A   Mostly Cloudy
9:53 AM 66.0 °F 53.1 °F 63% 29.72 in 10.0 mi South 23.0 mph 27.6 mph N/A   Scattered Clouds
10:53 AM 71.1 °F 52.0 °F 51% 29.68 in 10.0 mi SSW 20.7 mph 26.5 mph N/A   Scattered Clouds
11:53 AM 75.9 °F 50.0 °F 40% 29.65 in 10.0 mi South 24.2 mph 31.1 mph N/A   Mostly Cloudy
12:53 PM 79.0 °F 46.0 °F 31% 29.61 in 8.0 mi SSW 29.9 mph 39.1 mph N/A   Mostly Cloudy
1:53 PM 82.4 °F 39.2 °F 21% 29.56 in 5.0 mi SSW 28.8 mph 43.7 mph N/A   Widespread Dust
2:53 PM 82.0 °F 35.1 °F 18% 29.53 in 3.0 mi SW 26.5 mph 40.3 mph N/A   Widespread Dust
3:53 PM 79.0 °F 42.1 °F 27% 29.53 in 7.0 mi SSW 26.5 mph 35.7 mph N/A   Mostly Cloudy
4:53 PM 78.1 °F 46.0 °F 32% 29.54 in 8.0 mi SSW 20.7 mph 29.9 mph N/A   Mostly Cloudy
5:53 PM 77.0 °F 45.0 °F 32% 29.55 in 8.0 mi South 19.6 mph 31.1 mph N/A   Mostly Cloudy
6:53 PM 73.9 °F 48.9 °F 41% 29.57 in 7.0 mi South 23.0 mph 29.9 mph N/A   Mostly Cloudy
7:53 PM 72.0 °F 48.9 °F 44% 29.58 in 10.0 mi South 19.6 mph 29.9 mph N/A   Mostly Cloudy
8:25 PM 71.6 °F 50.0 °F 46% 29.73 in 10.0 mi WSW 16.1 mph 28.8 mph 0.00 in Rain Light Rain
8:32 PM 71.6 °F 50.0 °F 46% 29.73 in 10.0 mi SW 21.9 mph 31.1 mph 0.00 in Rain Light Rain
8:53 PM 70.0 °F 52.0 °F 53% 29.62 in 10.0 mi SSW 20.7 mph - 0.00 in   Scattered Clouds
9:53 PM 68.0 °F 51.8 °F 56% 29.76 in 10.0 mi SW 12.7 mph - N/A   Overcast
10:31 PM 66.2 °F 35.6 °F 32% 29.77 in 9.0 mi NW 11.5 mph 18.4 mph N/A   Overcast
10:53 PM 63.0 °F 34.0 °F 34% 29.67 in 10.0 mi NW 11.5 mph - N/A   Mostly Cloudy
11:53 PM 59.0 °F 33.1 °F 38% 29.67 in 10.0 mi NNW 15.0 mph - N/A   Mostly Cloudy